OBJECT AM, 57201

Orbit data source: Space-Track

You're viewing an uncataloged RSO

Recently launched and/or uncataloged RSOs may have evolving metadata. Metadata may include the following, but is not limited to: Owner, Manufacturer, Bus, Motor, and Mission.

OBJECT AM, 57201 is a satellite in SSO that was launched on Tue, 27 Jun 2023 UTC via a SOYUZ-2-1B launch vehicle from the Vostochny Cosmodrome (VOSTO). Unknown objects in Earth's orbit typically refer to objects detected orbiting the Earth but have not yet been identified or cataloged. These objects could be anything from previously untracked satellites, spent rocket stages, debris from satellite collisions, or even natural meteoroids temporarily captured by Earth's gravity.

Loading next visibility...
Identifier
57201, 2023-091AM
Orbit
SSO
Country
Flag of TBDTBD
Related business
Manufacturer
Sputniks
Mission
Operational Commercial Communications
Bus & Motor
CUBESAT 3U?, Unknown motor
Mass
3 kg wet, 3 kg dry
Launch date (UTC)
2023-06-27 (3 years ago)
Launch vehicle
SOYUZ-2-1B
Launch site
Vostochny Cosmodrome (VOSTO)
Object type
Unknown
Shape & HBR
Box, 0.2 m
Radar Cross Section
0.035 m², Medium (>0.1 m² and < 1m²)

Expand to show TLE details & history
Last TLE update: 3 hours ago

TLE from 3 hours ago
0 OBJECT AM
1 57201U 23091AM  26257.18459999  .00015478  00000-0  37510-3 0  9990
2 57201  97.4996 329.6740 0007519 111.2392 248.9658 15.41142024178443
Epoch: 2026-09-14T04:25Z
TLE epoch observation values (Epoch: 2026-09-14T04:25:49.439Z)
Latitude
-0°
Longitude
-89.95053°
Altitude
447.698 km
Speed
7.643 km/s
True Right ascension
21h 58m 41s
True Declination
0° 00' 00"
Sunlit
Object was in full shadow at epoch
Visualization orbit readout
Latitude
Unknown
Longitude
Unknown
Altitude
Unknown
Speed
Unknown
Apparent Right ascension
Unknown
Apparent Declination
Unknown
Sunlit
N/A
Visualization observer readout
Local Sidereal Time
00:22:28
Azimuth
Unknown
Elevation
Unknown
Doppler factor
Unknown
Orbital elements
Apogee altitude
444.806 km
Perigee altitude
434.553 km
Semi-major axis
6,817.816 km
Eccentricity
0.00075
Inclination
97.4996°
RAAN
329.674°
Arg. of periapsis
111.2392°
True anomaly
248.88541°
Mean anomaly
248.9658°
Eccentric anomaly
248.9256°
Mean motion
3.85545 °/min
Orbital period
93.37 mins
BSTAR
0.0003751
Loading maneuver chart data...
Computing Atmospheric mass density...
Loading historical data...
Loading historical data...
Loading historical data...
Loading historical data...
Loading historical data...
Loading historical data...
Loading historical data...

Documentation

Showing up to 5 results
|